Khors No. 4

operational
NORAD ID: 61754 Int'l Des: 2024-199 Owner: BAUM Country: RU
LEOCIRCULARRETROGRADESSO

Khors No. 4について

説明を読み込み中...

リアルタイム位置

3D地球を読み込み中...

次回通過

高度履歴

Altitude vs Time

uPlot chart will show altitude changes over time

軌道要素

1 61754U 24199V 26063.16556777 .00053765 00000-0 93377-3 0 9997
2 61754 97.3114 298.0448 0005828 314.6331 45.4445 15.50650249121321
Epoch: Mar 4, 2026 • Age: 22 hours

現在のステータス

高度 428.0 km
速度 7.65 km/s
衛星直下点 -33.84°S, 17.72°W
打ち上げ日 Nov 4, 2024
運用期間 1.3 years
タイプ other

技術仕様

分類 Payload
質量 10.00 kg
乾燥質量 10.00 kg
総質量 10.00 kg
長さ 0.30 m
直径 0.20 m
スパン 0.30 m
形状 Box
製造者 BAUM
バスタイプ Cubesat 6U
フェーズステータス In Orbit
所有者/国 BAUM/RU

大規模コンステレーション

Loading constellations...